• Em Portugal
  • Lista de países
  • Para 7 dias
  • Temperatura da água
  • Mapas de satélite
  • Mapa do tempo
  • Widgets de tempo
  • user-avatar
    Iniciar Sessão

    Previsão horária em Naftalan

    Hoje, 22 Outubro, Segunda-feira

    Tempo Temperatura Precipitação Vento Pressão Humidade
    00:00 +21°C° 0 mm 4 m/s 763 mmHg 72%
    01:00 +20°C° 0 mm 3 m/s 763 mmHg 72%
    02:00 +20°C° 0 mm 3 m/s 763 mmHg 72%
    03:00 +20°C° 0 mm 3 m/s 763 mmHg 74%
    04:00 +20°C° 0 mm 3 m/s 763 mmHg 74%
    05:00 +19°C° 0 mm 2 m/s 763 mmHg 74%
    06:00 +19°C° 0 mm 2 m/s 763 mmHg 74%
    07:00 +20°C° 0 mm 2 m/s 763 mmHg 69%
    08:00 +23°C° 0 mm 2 m/s 763 mmHg 64%
    09:00 +24°C° 0 mm 1 m/s 764 mmHg 60%
    10:00 +25°C° 0 mm 1 m/s 764 mmHg 57%
    11:00 +26°C° 0 mm 2 m/s 763 mmHg 54%
    12:00 +26°C° 0 mm 2 m/s 763 mmHg 52%
    13:00 +27°C° 0 mm 2 m/s 763 mmHg 51%
    14:00 +27°C° 0 mm 2 m/s 763 mmHg 50%
    15:00 +27°C° 0 mm 2 m/s 763 mmHg 52%
    16:00 +26°C° 0 mm 2 m/s 763 mmHg 57%
    17:00 +25°C° 0 mm 1 m/s 763 mmHg 61%
    18:00 +24°C° 0 mm 1 m/s 763 mmHg 65%
    19:00 +23°C° 0 mm 1 m/s 763 mmHg 67%
    20:00 +23°C° 0 mm 1 m/s 764 mmHg 68%
    21:00 +23°C° 0 mm 1 m/s 764 mmHg 69%
    22:00 +23°C° 0 mm 2 m/s 764 mmHg 66%
    23:00 +21°C° 0 mm 2 m/s 764 mmHg 62%

    Amanhã, 23 Outubro, Terça-feira

    Tempo Temperatura Precipitação Vento Pressão Humidade
    00:00 +21°C° 0 mm 3 m/s 764 mmHg 58%
    01:00 +21°C° 0 mm 3 m/s 764 mmHg 56%
    02:00 +20°C° 0 mm 3 m/s 764 mmHg 54%
    03:00 +20°C° 0 mm 4 m/s 764 mmHg 52%
    04:00 +19°C° 0 mm 3 m/s 764 mmHg 53%
    05:00 +19°C° 0 mm 3 m/s 764 mmHg 55%
    06:00 +19°C° 0 mm 3 m/s 764 mmHg 56%
    07:00 +20°C° 0 mm 3 m/s 764 mmHg 51%
    08:00 +22°C° 0 mm 3 m/s 765 mmHg 46%
    09:00 +25°C° 0 mm 3 m/s 765 mmHg 41%
    10:00 +26°C° 0 mm 3 m/s 765 mmHg 38%
    11:00 +27°C° 0 mm 3 m/s 764 mmHg 35%
    12:00 +28°C° 0 mm 2 m/s 764 mmHg 32%
    13:00 +28°C° 0 mm 3 m/s 764 mmHg 32%
    14:00 +28°C° 0 mm 3 m/s 763 mmHg 32%
    15:00 +28°C° 0 mm 3 m/s 763 mmHg 33%
    16:00 +26°C° 0 mm 3 m/s 763 mmHg 41%
    17:00 +25°C° 0 mm 3 m/s 763 mmHg 49%
    18:00 +22°C° 0 mm 4 m/s 763 mmHg 57%
    19:00 +22°C° 0 mm 3 m/s 763 mmHg 60%
    20:00 +21°C° 0 mm 3 m/s 763 mmHg 64%
    21:00 +21°C° 0 mm 3 m/s 764 mmHg 67%
    22:00 +20°C° 0 mm 3 m/s 763 mmHg 70%
    23:00 +20°C° 0 mm 3 m/s 763 mmHg 72%

    Depois de amanhã, 24 Outubro, Quarta-feira

    Tempo Temperatura Precipitação Vento Pressão Humidade
    00:00 +20°C° 0 mm 2 m/s 763 mmHg 74%
    01:00 +19°C° 0 mm 2 m/s 762 mmHg 75%
    02:00 +19°C° 0 mm 2 m/s 762 mmHg 77%
    03:00 +19°C° 0 mm 2 m/s 762 mmHg 78%
    04:00 +19°C° 0 mm 2 m/s 762 mmHg 79%
    05:00 +18°C° 0 mm 2 m/s 761 mmHg 80%
    06:00 +19°C° 0 mm 1 m/s 761 mmHg 81%
    07:00 +20°C° 0 mm 2 m/s 761 mmHg 75%
    08:00 +21°C° 0 mm 2 m/s 761 mmHg 69%
    09:00 +24°C° 0 mm 2 m/s 761 mmHg 62%
    10:00 +25°C° 0 mm 2 m/s 760 mmHg 56%
    11:00 +26°C° 0 mm 2 m/s 760 mmHg 50%
    12:00 +27°C° 0 mm 2 m/s 759 mmHg 44%
    13:00 +27°C° 0 mm 3 m/s 758 mmHg 44%
    14:00 +27°C° 0 mm 3 m/s 758 mmHg 44%
    15:00 +28°C° 0 mm 3 m/s 757 mmHg 44%
    16:00 +26°C° 0 mm 3 m/s 757 mmHg 53%
    17:00 +25°C° 0 mm 3 m/s 757 mmHg 62%
    18:00 +22°C° 0 mm 3 m/s 756 mmHg 70%
    19:00 +23°C° 0 mm 2 m/s 756 mmHg 74%
    20:00 +23°C° 0 mm 2 m/s 756 mmHg 78%
    21:00 +21°C° 0 mm 2 m/s 756 mmHg 81%
    22:00 +21°C° 0 mm 2 m/s 755 mmHg 82%
    23:00 +21°C° 0 mm 2 m/s 755 mmHg 82%

    25 Outubro, Quinta-feira

    Tempo Temperatura Precipitação Vento Pressão Humidade
    00:00 +21°C° 0 mm 2 m/s 754 mmHg 82%
    01:00 +20°C° 0 mm 3 m/s 754 mmHg 77%
    02:00 +20°C° 0 mm 3 m/s 754 mmHg 71%
    03:00 +20°C° 0 mm 4 m/s 753 mmHg 65%
    04:00 +20°C° 0 mm 4 m/s 753 mmHg 58%
    05:00 +19°C° 0 mm 4 m/s 753 mmHg 52%
    06:00 +19°C° 0 mm 4 m/s 753 mmHg 45%
    07:00 +21°C° 0 mm 4 m/s 753 mmHg 39%
    08:00 +23°C° 0 mm 4 m/s 753 mmHg 34%
    09:00 +26°C° 0 mm 4 m/s 753 mmHg 28%
    10:00 +28°C° 0 mm 3 m/s 752 mmHg 27%
    11:00 +29°C° 0 mm 3 m/s 752 mmHg 26%
    12:00 +30°C° 0 mm 3 m/s 751 mmHg 25%
    13:00 +31°C° 0 mm 3 m/s 751 mmHg 26%
    14:00 +31°C° 0 mm 3 m/s 750 mmHg 26%
    15:00 +31°C° 0 mm 2 m/s 749 mmHg 27%
    16:00 +30°C° 0 mm 3 m/s 749 mmHg 32%
    17:00 +28°C° 0 mm 3 m/s 749 mmHg 36%
    18:00 +26°C° 0 mm 4 m/s 750 mmHg 41%
    19:00 +27°C° 0 mm 5 m/s 750 mmHg 40%
    20:00 +27°C° 0 mm 5 m/s 750 mmHg 38%
    21:00 +27°C° 0 mm 6 m/s 751 mmHg 37%
    22:00 +27°C° 0 mm 6 m/s 751 mmHg 39%
    23:00 +26°C° 0 mm 5 m/s 752 mmHg 40%

    26 Outubro, Sexta-feira

    Tempo Temperatura Precipitação Vento Pressão Humidade
    00:00 +26°C° 0 mm 5 m/s 752 mmHg 42%
    01:00 +23°C° 0 mm 7 m/s 753 mmHg 50%
    02:00 +21°C° 0 mm 9 m/s 753 mmHg 58%
    03:00 +19°C° 0 mm 11 m/s 753 mmHg 66%
    04:00 +18°C° 0 mm 11 m/s 754 mmHg 68%
    05:00 +17°C° 0 mm 11 m/s 755 mmHg 70%
    06:00 +17°C° 0 mm 11 m/s 755 mmHg 72%
    07:00 +17°C° 0 mm 11 m/s 756 mmHg 70%
    08:00 +17°C° 0 mm 10 m/s 756 mmHg 69%
    09:00 +18°C° 0 mm 10 m/s 757 mmHg 68%
    10:00 +18°C° 0 mm 10 m/s 756 mmHg 66%
    11:00 +18°C° 0 mm 10 m/s 756 mmHg 64%
    12:00 +18°C° 0 mm 10 m/s 756 mmHg 62%
    13:00 +18°C° 0.1 mm 10 m/s 756 mmHg 63%
    14:00 +17°C° 0.1 mm 10 m/s 756 mmHg 64%
    15:00 +17°C° 0.1 mm 10 m/s 757 mmHg 65%
    16:00 +16°C° 0.1 mm 9 m/s 758 mmHg 65%
    17:00 +15°C° 0.1 mm 9 m/s 759 mmHg 65%
    18:00 +15°C° 0.1 mm 9 m/s 760 mmHg 65%
    19:00 +13°C° 0.1 mm 9 m/s 761 mmHg 69%
    20:00 +13°C° 0.1 mm 8 m/s 762 mmHg 72%
    21:00 +12°C° 0.1 mm 8 m/s 763 mmHg 75%
    22:00 +12°C° 0 mm 7 m/s 763 mmHg 72%
    23:00 +13°C° 0 mm 6 m/s 763 mmHg 70%

    27 Outubro, Sábado

    Tempo Temperatura Precipitação Vento Pressão Humidade
    00:00 +13°C° 0 mm 5 m/s 764 mmHg 67%
    01:00 +13°C° 0 mm 6 m/s 764 mmHg 62%
    02:00 +13°C° 0 mm 6 m/s 764 mmHg 57%
    03:00 +12°C° 0 mm 7 m/s 765 mmHg 53%
    04:00 +12°C° 0 mm 8 m/s 765 mmHg 50%
    05:00 +12°C° 0 mm 9 m/s 766 mmHg 47%
    06:00 +12°C° 0 mm 10 m/s 767 mmHg 45%
    07:00 +14°C° 0 mm 10 m/s 768 mmHg 40%
    08:00 +16°C° 0 mm 10 m/s 769 mmHg 35%
    09:00 +18°C° 0 mm 11 m/s 769 mmHg 29%
    10:00 +19°C° 0 mm 10 m/s 770 mmHg 29%
    11:00 +20°C° 0 mm 8 m/s 770 mmHg 29%
    12:00 +21°C° 0 mm 7 m/s 771 mmHg 29%
    13:00 +21°C° 0 mm 7 m/s 771 mmHg 30%
    14:00 +21°C° 0 mm 6 m/s 771 mmHg 30%
    15:00 +21°C° 0 mm 5 m/s 772 mmHg 30%
    16:00 +20°C° 0 mm 5 m/s 773 mmHg 40%
    17:00 +17°C° 0 mm 5 m/s 773 mmHg 50%
    18:00 +17°C° 0 mm 4 m/s 774 mmHg 59%
    19:00 +17°C° 0 mm 4 m/s 775 mmHg 62%
    20:00 +15°C° 0 mm 4 m/s 775 mmHg 65%
    21:00 +16°C° 0 mm 3 m/s 775 mmHg 68%
    22:00 +16°C° 0 mm 3 m/s 775 mmHg 69%
    23:00 +16°C° 0 mm 3 m/s 775 mmHg 71%

    28 Outubro, Domingo

    Tempo Temperatura Precipitação Vento Pressão Humidade
    00:00 +14°C° 0 mm 3 m/s 775 mmHg 73%
    01:00 +14°C° 0 mm 3 m/s 775 mmHg 75%
    02:00 +15°C° 0 mm 2 m/s 775 mmHg 76%
    03:00 +15°C° 0 mm 2 m/s 775 mmHg 78%
    04:00 +14°C° 0 mm 3 m/s 775 mmHg 79%
    05:00 +13°C° 0 mm 3 m/s 775 mmHg 79%
    06:00 +13°C° 0 mm 3 m/s 776 mmHg 80%
    07:00 +16°C° 0 mm 3 m/s 776 mmHg 74%
    08:00 +17°C° 0 mm 3 m/s 776 mmHg 67%
    09:00 +19°C° 0 mm 4 m/s 776 mmHg 60%
    10:00 +19°C° 0 mm 4 m/s 776 mmHg 58%
    11:00 +20°C° 0 mm 4 m/s 776 mmHg 56%
    12:00 +21°C° 0 mm 4 m/s 775 mmHg 54%
    13:00 +21°C° 0 mm 4 m/s 775 mmHg 53%
    14:00 +21°C° 0 mm 4 m/s 775 mmHg 53%
    15:00 +21°C° 0 mm 4 m/s 774 mmHg 53%
    16:00 +20°C° 0 mm 4 m/s 774 mmHg 58%
    17:00 +19°C° 0 mm 4 m/s 775 mmHg 62%
    18:00 +18°C° 0 mm 4 m/s 775 mmHg 67%
    19:00 +17°C° 0 mm 4 m/s 775 mmHg 69%
    20:00 +17°C° 0 mm 4 m/s 775 mmHg 71%
    21:00 +17°C° 0 mm 4 m/s 775 mmHg 74%
    22:00 +15°C° 0 mm 4 m/s 775 mmHg 75%
    23:00 +16°C° 0 mm 3 m/s 774 mmHg 77%
    Mostrar mais